Weather History for Eagle, CO

Change the Weather History Date:

Monday, February 25, 2013

  Actual Average Record
Temperature  
Mean Temperature 17 °F -  
Max Temperature 33 °F 45 °F 65 °F (1986)
Min Temperature 1 °F 14 °F -21 °F (1952)
Degree Days  
Heating Degree Days 48    
Moisture  
Dew Point 5 °F    
Average Humidity 79    
Maximum Humidity 92    
Minimum Humidity 35    
Precipitation  
Precipitation 0.00 in - - ()
Sea Level Pressure  
Sea Level Pressure 30.03 in    
Wind  
Wind Speed 2 mph (ESE)    
Max Wind Speed 12 mph    
Max Gust Speed -    
Visibility 10 miles    
Events      
Averages and records for this station are not official NWS values.
T = Trace of Precipitation, MM = Missing Value Source: NWS Daily Summary

Daily Weather History Graph

Daily Weather History Graph

Search for Another Location

Airport:

Trip Planner

Search our weather history database for the weather conditions in past years. The results will help you decide how hot, cold, wet, or windy it might be!

Date:

Astronomy

Feb. 25, 2013 Rise Set
Actual Time 6:46 AM MST 5:55 PM MST
Civil Twilight 6:18 AM MST 6:22 PM MST
Nautical Twilight 5:47 AM MST 6:54 PM MST
Astronomical Twilight 5:16 AM MST 7:25 PM MST
Moon 6:11 PM MST 6:17 AM MST
Length of Visible Light 12h 04m
Length of Day
11h 09m
Full, 100% of the Moon is Illuminated
Feb 25
Full
Feb 25
Full
Mar 4
Last Quarter
Mar 11
New
Mar 19
First Quarter

Hourly Weather History & Observations

Time (MST) Temp. Windchill Dew Point Humidity Pressure Visibility Wind Dir Wind Speed Gust Speed Precip Events Conditions
12:15 AM 8.6 °F 2.0 °F 5.0 °F 85% 30.04 in 10.0 mi ESE 3.5 mph - N/A   Unknown
12:35 AM 10.4 °F - 6.8 °F 85% 30.04 in 10.0 mi Calm Calm - N/A   Unknown
12:55 AM 8.6 °F - 3.2 °F 79% 30.05 in 10.0 mi Calm Calm - N/A   Unknown
1:15 AM 6.8 °F -0.1 °F 3.2 °F 85% 30.06 in 10.0 mi ESE 3.5 mph - N/A   Unknown
1:35 AM 6.8 °F -2.0 °F 3.2 °F 85% 30.07 in 10.0 mi East 4.6 mph - N/A   Unknown
1:55 AM 5.0 °F -4.1 °F 3.2 °F 92% 30.07 in 10.0 mi East 4.6 mph - N/A   Unknown
2:15 AM 6.8 °F -0.1 °F 3.2 °F 85% 30.08 in 10.0 mi SSE 3.5 mph - N/A   Unknown
2:35 AM 5.0 °F - 1.4 °F 85% 30.08 in 10.0 mi Calm Calm - N/A   Unknown
2:55 AM 3.2 °F - 1.4 °F 92% 30.08 in 10.0 mi Calm Calm - N/A   Unknown
3:15 AM 3.2 °F -4.2 °F -0.4 °F 85% 30.08 in 10.0 mi ESE 3.5 mph - N/A   Unknown
3:35 AM 3.2 °F - 1.4 °F 92% 30.08 in 10.0 mi Calm Calm - N/A   Unknown
3:55 AM 1.4 °F - -0.4 °F 92% 30.09 in 10.0 mi Calm Calm - N/A   Unknown
4:15 AM 1.4 °F -6.2 °F -0.4 °F 92% 30.09 in 10.0 mi East 3.5 mph - N/A   Unknown
4:35 AM 1.4 °F -6.2 °F -0.4 °F 92% 30.10 in 10.0 mi SSW 3.5 mph - N/A   Unknown
4:55 AM 1.4 °F - -0.4 °F 92% 30.11 in 10.0 mi Calm Calm - N/A   Unknown
5:15 AM 1.4 °F - -2.2 °F 85% 30.11 in 10.0 mi Calm Calm - N/A   Unknown
5:35 AM 3.2 °F - -0.4 °F 85% 30.12 in 10.0 mi Calm Calm - N/A   Unknown
5:55 AM 3.2 °F - -0.4 °F 85% 30.13 in 10.0 mi Calm Calm - N/A   Unknown
6:15 AM 1.4 °F - -0.4 °F 92% 30.14 in 10.0 mi Calm Calm - N/A   Unknown
6:35 AM 1.4 °F - -2.2 °F 85% 30.14 in 10.0 mi Calm Calm - N/A   Unknown
6:50 AM 1.4 °F - -0.4 °F 92% 30.14 in 10.0 mi Calm Calm - N/A   Scattered Clouds
7:50 AM 3.2 °F - -0.4 °F 85% 30.15 in 10.0 mi Calm Calm - N/A   Mostly Cloudy
8:50 AM 5.0 °F - 1.4 °F 85% 30.14 in 10.0 mi Calm Calm - N/A   Scattered Clouds
9:50 AM 12.2 °F - 6.8 °F 79% 30.12 in 10.0 mi Calm Calm - N/A   Partly Cloudy
10:50 AM 15.8 °F - 8.6 °F 73% 30.09 in 10.0 mi Calm Calm - N/A   Partly Cloudy
11:50 AM 21.2 °F - 10.4 °F 63% 30.06 in 10.0 mi Calm Calm - N/A   Partly Cloudy
12:50 PM 28.4 °F - 12.2 °F 51% 30.02 in 10.0 mi Calm Calm - N/A   Partly Cloudy
2:50 PM 30.2 °F - 12.2 °F 47% 29.95 in 10.0 mi Calm Calm - N/A   Clear
3:50 PM 30.2 °F - 12.2 °F 47% 29.93 in 10.0 mi Calm Calm - N/A   Clear
4:50 PM 33.8 °F - 8.6 °F 35% 29.92 in 10.0 mi Calm Calm - N/A   Clear
5:50 PM 30.2 °F - 12.2 °F 47% 29.91 in 10.0 mi Calm Calm - N/A   Clear
6:50 PM 21.2 °F 9.5 °F 12.2 °F 68% 29.91 in 10.0 mi East 11.5 mph - N/A   Clear
7:50 PM 19.4 °F 8.6 °F 12.2 °F 74% 29.91 in 10.0 mi ENE 9.2 mph - N/A   Clear
8:50 PM 17.6 °F 9.3 °F 12.2 °F 79% 29.91 in 10.0 mi East 5.8 mph - N/A   Clear
9:50 PM 17.6 °F - 10.4 °F 73% 29.89 in 10.0 mi Calm Calm - N/A   Clear
10:50 PM 17.6 °F - 12.2 °F 79% 29.89 in 10.0 mi Calm Calm - N/A   Clear
11:15 PM 17.6 °F 8.2 °F 12.2 °F 79% 29.89 in 10.0 mi East 6.9 mph - N/A   Unknown
11:35 PM 17.6 °F 10.7 °F 12.2 °F 79% 29.89 in 10.0 mi ENE 4.6 mph - N/A   Unknown
11:55 PM 15.8 °F 8.6 °F 10.4 °F 79% 29.88 in 10.0 mi ESE 4.6 mph - N/A   Unknown